[Iaude] MPEC L101: 2024 LP2 [a=2.43,e=0.48,i=2.5,H=23.3]
    mpec at cfa.harvard.edu 
    mpec at cfa.harvard.edu
       
    Mon Jun 10 07:28:28 EDT 2024
    
    
  
M.P.E.C. 2024-L101                                Issued 2024 June 10, 11:27 UT
     The Minor Planet Electronic Circulars contain information on unusual
         minor planets, routine data on comets and natural satellites,
         and occasional editorial announcements.  They are published
    on behalf of Division F of the International Astronomical Union by the
          Minor Planet Center, Smithsonian Astrophysical Observatory,
                          Cambridge, MA 02138, U.S.A.
			  
             Prepared using the Tamkin Foundation Computer Network
                              MPC at CFA.HARVARD.EDU
            URL https://www.minorplanetcenter.net/    ISSN 1523-6714
                                    2024 LP2                                    
Observations:
     K24L02P* C2024 06 06.34858814 57 28.364-23 52 22.84         21.98wXEL101F52
     K24L02P  C2024 06 06.35977414 57 29.201-23 52 32.49         22.30wXEL101F52
     K24L02P  C2024 06 06.37099214 57 30.024-23 52 42.47         22.01wXEL101F52
     K24L02P  C2024 06 06.38217114 57 30.857-23 52 52.40         22.09wXEL101F52
     K24L02P  C2024 06 06.40436314 57 32.524-23 53 11.23         21.48GVEL101F51
     K24L02P  C2024 06 06.40500814 57 32.568-23 53 11.74         21.79GVEL101F51
     K24L02P KC2024 06 06.53310614 57 43.781-23 54 29.77         22.0 GVEL101474
     K24L02P KC2024 06 06.54023114 57 44.352-23 54 35.64         22.2 GVEL101474
     K24L02P KC2024 06 06.58351014 57 47.868-23 55 12.65         21.8 GVEL101474
     K24L02P KC2024 06 06.59775814 57 49.015-23 55 24.35         21.9 GVEL101474
     K24L02P |C2024 06 07.00929014 58 28.720-24 01 37.60         21.8 GVEL101807
     K24L02P |C2024 06 07.02041014 58 29.590-24 01 47.60         21.7 GVEL101807
     K24L02P |C2024 06 07.03148014 58 30.500-24 01 58.10         21.7 GVEL101807
     K24L02P KC2024 06 07.48683414 59 10.776-24 08 32.86         21.5 GVEL101474
     K24L02P KC2024 06 07.49395914 59 11.405-24 08 39.26         21.8 GVEL101474
     K24L02P KC2024 06 07.51155314 59 12.857-24 08 55.21         21.5 GVEL101474
     K24L02P 3C2024 06 10.24933015 03 43.904-24 49 38.16         21.33GVEL101T14
     K24L02P 3C2024 06 10.25030615 03 43.994-24 49 39.12         22.09GVEL101T14
     K24L02P 3C2024 06 10.25128515 03 44.081-24 49 40.13         21.98GVEL101T14
Observer details:
474 Mount John Observatory, Lake Tekapo.  Observers A. C. Gilmore, P. M.
    Kilmartin.  Measurer P. M. Kilmartin.  1.0-m f/7.7 Reflector + CCD.
807 Cerro Tololo Observatory, La Serena.  Observers T. Linder, R. Holmes.
    0.61-m f/6.8 Ritchey-Chretien + CCD.
F51 Pan-STARRS 1, Haleakala.  Observers J. Herman, T. Lowe, P. Minguez, A.
    Schultz, I. Smith.  Measurers K. Chambers, T. de Boer, J. Fairlamb, H.
    Gao, M. Huber, C.-C. Lin, E. Magnier, Y. Ramanjooloo, R. Wainscoat, R.
    Weryk.  1.8-m Ritchey-Chretien + CCD.
F52 Pan-STARRS 2, Haleakala.  Observers J. Herman, T. Lowe, P. Minguez, A.
    Schultz, I. Smith.  Measurers K. Chambers, T. de Boer, J. Fairlamb, H.
    Gao, M. Huber, C.-C. Lin, E. Magnier, Y. Ramanjooloo, R. Wainscoat, R.
    Weryk.  1.8-m Ritchey-Chretien + CCD.
T14 Canada-France-Hawaii Telescope, Maunakea.  Observers R. Wainscoat, A.
    Acohido, H. Flewelling.  Measurers R. Weryk, R. Wainscoat.  3.6-m f/4.1
    reflector + CCD.
Orbital elements:
2024 LP2                                                 Earth MOID = 0.2412 AU
Epoch 2024 Mar. 31.0 TT = JDT 2460400.5                 MPC                     
M 339.93469              (2000.0)            P               Q                  
n   0.25950074     Peri.  223.40553     -0.19437102     +0.98060444             
a   2.4343162      Node    35.40849     -0.88767993     -0.16490546             
e   0.4848189      Incl.    2.49236     -0.41742573     -0.10592977             
P   3.80           H   23.33          G   0.15           U   8                  
Residuals in seconds of arc
240606 F52  0.0   0.0     240606 474  0.2+  0.5+    240607 474  0.1+  0.3+
240606 F52  0.1+  0.2+    240606 474  0.3+  0.1-    240607 474  0.0   0.6-
240606 F52  0.1-  0.0     240606 474  0.2-  0.1+    240610 T14  0.0   0.1+
240606 F52  0.1-  0.2-    240607 807  0.1-  0.0     240610 T14  0.0   0.0
240606 F51  0.0   0.1+    240607 807  0.4-  0.3+    240610 T14  0.0   0.1-
240606 F51  0.0   0.1+    240607 807  0.0   0.1-
240606 474  0.2+  0.3+    240607 474  0.5-  0.5+
Ephemeris:
2024 LP2                 a,e,i = 2.43, 0.48, 2                   q = 1.2541
Date    TT    R. A. (2000) Decl.     Delta      r    Elong.  Phase     V
2024 05 11    14 37 50.6 -18 00 23   0.3044  1.3120   171.8     6.3    21.8
...
2024 05 26    14 44 46.9 -21 08 24   0.2751  1.2746   159.7    16.0    21.9
...
2024 06 03    14 52 54.8 -23 02 49   0.2691  1.2622   154.3    20.4    22.0
...
2024 06 09    15 01 36.1 -24 30 58   0.2687  1.2566   150.8    23.2    22.1
2024 06 10    15 03 16.8 -24 45 38   0.2690  1.2559   150.3    23.6    22.1
2024 06 11    15 05 01.6 -25 00 14   0.2693  1.2554   149.8    24.0    22.1
...
2024 06 17    15 16 53.1 -26 25 51   0.2735  1.2541   147.0    26.2    22.2
...
2024 06 25    15 36 05.7 -28 09 38   0.2845  1.2575   143.9    28.4    22.4
...
2024 07 10    16 19 45.5 -30 27 23   0.3223  1.2792   139.6    31.0    22.7
A. U. Tomatic                (C) Copyright 2024 MPC           M.P.E.C. 2024-L101
    
    
More information about the Iaude
mailing list